Decatur, IL

4:04 PM CST on February 26, 2017 (GMT -0600)
Decatur

Weather History for KDEC - April, 2013

Change the Weather History Date:

Friday, April 19, 2013

  Actual Average Record
Temperature  
Mean Temperature 41 °F 54 °F  
Max Temperature 45 °F 65 °F 84 °F (2002)
Min Temperature 36 °F 43 °F 32 °F (1999)
Degree Days  
Heating Degree Days 24 11  
Month to date heating degree days 258 277  
Since 1 July heating degree days 5135 5261  
Cooling Degree Days 0 0  
Month to date cooling degree days 4 0  
Year to date cooling degree days 4 1  
Moisture  
Dew Point 29 °F    
Average Humidity 64    
Maximum Humidity 70    
Minimum Humidity 57    
Precipitation  
Precipitation 0.02 in 0.11 in 1.21 in (2011)
Month to date precipitation 5.68 2.08  
Year to date precipitation 10.76 8.44  
Sea Level Pressure  
Sea Level Pressure 29.81 in    
Wind  
Wind Speed 15 mph (West)    
Max Wind Speed 25 mph    
Max Gust Speed 39 mph    
Visibility 10 miles    
Events Rain    
T = Trace of Precipitation, MM = Missing Value Source: NWS Daily Summary

Daily Weather History Graph

Daily Weather History Graph

Search for Another Location

Airport or City:

Trip Planner

Search our weather history database for the weather conditions in past years. The results will help you decide how hot, cold, wet, or windy it might be!

Date:

Astronomy

Apr. 19, 2013 Rise Set
Actual Time 6:11 AM CDT 7:38 PM CDT
Civil Twilight 5:43 AM CDT 8:06 PM CDT
Nautical Twilight 5:09 AM CDT 8:40 PM CDT
Astronomical Twilight 4:33 AM CDT 9:16 PM CDT
Moon 1:23 PM CDT (4/19) 2:26 AM CDT (4/19)
Length of Visible Light 14h 23m
Length of Day
13h 26m
First Quarter, 62% of the Moon is Illuminated
Apr 19
First Quarter
Apr 25
Full
May 2
Last Quarter
May 9
New
May 17
First Quarter

Hourly Weather History & Observations

Time (CDT) Temp. Windchill Dew Point Humidity Pressure Visibility Wind Dir Wind Speed Gust Speed Precip Events Conditions
12:54 AM 41.0 °F 32.2 °F 32.0 °F 70% 29.67 in 10.0 mi West 18.4 mph 29.9 mph N/A   Overcast
1:04 AM 41.0 °F 33.5 °F 32.0 °F 70% 29.66 in 10.0 mi West 13.8 mph 39.1 mph N/A   Overcast
1:54 AM 39.9 °F 29.7 °F 30.0 °F 68% 29.68 in 10.0 mi West 23.0 mph 29.9 mph N/A   Overcast
2:54 AM 39.0 °F 28.8 °F 28.9 °F 67% 29.67 in 10.0 mi West 21.9 mph 29.9 mph N/A   Overcast
3:54 AM 39.0 °F 30.3 °F 28.0 °F 65% 29.68 in 10.0 mi West 16.1 mph 28.8 mph N/A   Overcast
4:45 AM 39.2 °F 30.5 °F 28.4 °F 65% 29.68 in 10.0 mi West 16.1 mph 29.9 mph N/A   Overcast
4:54 AM 39.0 °F 31.0 °F 28.0 °F 65% 29.68 in 10.0 mi West 13.8 mph 24.2 mph N/A   Overcast
5:54 AM 39.0 °F 29.9 °F 28.0 °F 65% 29.70 in 10.0 mi West 17.3 mph 29.9 mph N/A   Overcast
6:54 AM 37.9 °F 28.5 °F 28.0 °F 68% 29.72 in 10.0 mi West 17.3 mph 24.2 mph N/A   Overcast
7:01 AM 37.4 °F 28.2 °F 26.6 °F 65% 29.72 in 10.0 mi WNW 16.1 mph 25.3 mph N/A   Overcast
7:11 AM 37.4 °F 29.3 °F 28.4 °F 70% 29.73 in 10.0 mi West 12.7 mph 23.0 mph N/A   Overcast
7:54 AM 37.9 °F 28.5 °F 28.9 °F 70% 29.75 in 10.0 mi West 17.3 mph 28.8 mph 0.00 in Rain Light Rain
8:54 AM 37.9 °F 27.3 °F 28.0 °F 68% 29.77 in 10.0 mi WSW 21.9 mph 28.8 mph 0.00 in   Overcast
9:01 AM 37.4 °F 27.2 °F 28.4 °F 70% 29.76 in 10.0 mi WSW 19.6 mph 28.8 mph N/A   Overcast
9:54 AM 37.9 °F 29.2 °F 28.0 °F 68% 29.78 in 10.0 mi WSW 15.0 mph 24.2 mph N/A   Overcast
10:54 AM 37.9 °F 28.2 °F 28.0 °F 68% 29.78 in 10.0 mi WSW 18.4 mph 25.3 mph N/A   Overcast
11:54 AM 39.0 °F 31.4 °F 28.0 °F 65% 29.81 in 10.0 mi West 12.7 mph 31.1 mph N/A   Overcast
12:29 PM 37.4 °F 26.9 °F 28.4 °F 70% 29.81 in 10.0 mi WSW 20.7 mph 32.2 mph 0.00 in Rain Light Rain
12:37 PM 39.2 °F 32.5 °F 30.2 °F 70% 29.81 in 10.0 mi WSW 10.4 mph 27.6 mph 0.00 in Rain Light Rain
12:49 PM 39.2 °F 29.6 °F 28.4 °F 65% 29.81 in 10.0 mi WSW 19.6 mph 28.8 mph 0.00 in Rain Light Rain
12:54 PM 37.9 °F 27.6 °F 28.9 °F 70% 29.83 in 10.0 mi WSW 20.7 mph 28.8 mph 0.00 in Rain Light Rain
1:15 PM 39.2 °F 30.5 °F 30.2 °F 70% 29.82 in 10.0 mi WSW 16.1 mph 23.0 mph 0.00 in Rain Light Rain
1:54 PM 41.0 °F 32.8 °F 28.0 °F 60% 29.84 in 10.0 mi WSW 16.1 mph 27.6 mph 0.00 in   Overcast
2:54 PM 39.9 °F 30.5 °F 28.9 °F 65% 29.85 in 8.0 mi West 19.6 mph 26.5 mph 0.00 in Rain Light Rain
3:54 PM 42.1 °F 35.7 °F 28.9 °F 60% 29.86 in 10.0 mi West 11.5 mph 20.7 mph 0.00 in   Overcast
4:54 PM 42.1 °F 33.6 °F 28.0 °F 58% 29.88 in 10.0 mi West 18.4 mph 34.5 mph N/A   Overcast
5:54 PM 45.0 °F 38.2 °F 30.0 °F 56% 29.90 in 10.0 mi West 15.0 mph 21.9 mph 0.00 in   Overcast
6:54 PM 42.1 °F 35.2 °F 28.9 °F 60% 29.93 in 10.0 mi West 12.7 mph 25.3 mph 0.00 in   Overcast
7:54 PM 39.9 °F 32.9 °F 30.9 °F 70% 29.96 in 10.0 mi West 11.5 mph 18.4 mph 0.02 in   Mostly Cloudy
8:54 PM 41.0 °F 36.4 °F 30.9 °F 67% 29.99 in 10.0 mi West 6.9 mph - N/A   Mostly Cloudy
9:54 PM 39.9 °F 36.7 °F 30.9 °F 70% 30.01 in 10.0 mi West 4.6 mph - N/A   Mostly Cloudy
10:54 PM 39.9 °F 32.9 °F 30.9 °F 70% 30.03 in 10.0 mi NNW 11.5 mph - N/A   Mostly Cloudy
11:54 PM 37.9 °F 31.5 °F 28.0 °F 68% 30.05 in 10.0 mi WNW 9.2 mph - N/A   Clear